GEFSSE_prec_meanprecacc_228.txt.gz
Total_Precipitation_Accumulation
0.40 0.27 0.31 0.31 0.24 0.21 0.21 0.29 0.37 0.31 0.27 0.28 0.31 0.32 0.28 0.25 0.22 0.21 0.22 0.22 0.23 0.29 0.35 0.42 0.46 0.52 0.56 0.55 0.41 0.28 0.23 0.21 0.18 0.18 0.23 0.30 0.34 0.36 0.43 0.40 0.46 0.49 0.57
0.30 0.26 0.32 0.30 0.26 0.26 0.27 0.33 0.30 0.25 0.24 0.24 0.25 0.31 0.28 0.24 0.22 0.23 0.25 0.28 0.31 0.35 0.35 0.36 0.41 0.49 0.47 0.40 0.32 0.24 0.20 0.18 0.20 0.26 0.31 0.40 0.54 0.58 0.66 0.60 0.62 0.73 0.59
0.25 0.30 0.34 0.34 0.31 0.29 0.27 0.29 0.24 0.22 0.25 0.28 0.28 0.32 0.35 0.26 0.22 0.23 0.25 0.33 0.40 0.42 0.39 0.36 0.36 0.41 0.41 0.32 0.26 0.23 0.24 0.28 0.33 0.44 0.66 0.74 0.75 0.81 0.86 0.78 0.72 0.61 0.48
0.25 0.32 0.32 0.34 0.35 0.32 0.29 0.29 0.26 0.27 0.28 0.33 0.37 0.38 0.41 0.31 0.26 0.27 0.29 0.33 0.41 0.44 0.39 0.36 0.33 0.36 0.36 0.30 0.26 0.25 0.29 0.39 0.49 0.66 1.03 0.98 0.85 0.96 0.90 0.82 0.77 0.70 0.61
0.29 0.31 0.31 0.30 0.35 0.40 0.40 0.38 0.37 0.34 0.37 0.41 0.46 0.50 0.54 0.43 0.31 0.32 0.35 0.35 0.40 0.44 0.45 0.40 0.33 0.31 0.33 0.31 0.28 0.28 0.30 0.40 0.62 0.92 1.30 1.45 1.41 1.29 1.00 0.86 0.82 0.79 0.79
0.35 0.39 0.34 0.35 0.39 0.53 0.54 0.49 0.47 0.45 0.46 0.52 0.55 0.54 0.58 0.51 0.42 0.41 0.44 0.43 0.45 0.48 0.53 0.50 0.46 0.36 0.33 0.42 0.32 0.33 0.38 0.54 0.67 0.99 1.36 1.68 1.65 1.54 1.20 0.99 0.88 0.93 0.93
0.46 0.50 0.45 0.44 0.46 0.58 0.57 0.55 0.51 0.51 0.51 0.60 0.62 0.58 0.59 0.54 0.46 0.47 0.53 0.53 0.56 0.59 0.56 0.51 0.49 0.43 0.39 0.47 0.47 0.43 0.52 0.71 0.79 1.07 1.38 1.50 1.63 1.58 1.39 1.25 1.05 0.92 0.91
0.51 0.50 0.46 0.45 0.47 0.61 0.65 0.60 0.56 0.53 0.58 0.70 0.73 0.67 0.60 0.57 0.56 0.60 0.62 0.65 0.70 0.66 0.56 0.52 0.50 0.47 0.50 0.51 0.52 0.55 0.61 0.69 0.66 0.90 1.23 1.41 1.35 1.37 1.53 1.49 1.24 1.04 0.93
0.59 0.57 0.57 0.63 0.62 0.63 0.64 0.67 0.71 0.63 0.69 0.79 0.78 0.80 0.70 0.65 0.73 0.79 0.77 0.77 0.78 0.70 0.59 0.56 0.57 0.50 0.54 0.59 0.55 0.58 0.62 0.66 0.62 0.85 1.11 1.55 1.30 1.41 1.64 1.51 1.31 1.19 1.06
1.11 1.16 0.98 0.96 0.88 0.73 0.65 0.65 0.67 0.69 0.82 0.94 0.86 0.80 0.78 0.76 0.79 0.84 0.81 0.80 0.73 0.63 0.59 0.61 0.64 0.59 0.55 0.53 0.51 0.55 0.60 0.53 0.50 0.71 1.24 1.45 1.39 1.66 1.82 1.65 1.44 1.33 1.25
1.65 1.77 1.47 1.08 0.92 0.94 0.82 0.71 0.77 0.75 0.79 0.87 0.86 0.82 0.87 1.09 1.19 1.17 0.94 0.93 0.83 0.74 0.72 0.72 0.68 0.61 0.55 0.52 0.59 0.67 0.63 0.49 0.66 0.91 1.21 1.41 1.56 1.89 2.04 1.83 1.62 1.50 1.40
1.99 1.95 1.78 1.36 1.35 1.48 1.19 1.08 1.03 0.96 0.95 0.95 1.05 1.04 1.13 1.54 1.62 1.35 1.33 1.19 1.12 0.99 0.92 0.91 0.88 0.76 0.65 0.63 0.79 0.82 0.62 0.60 0.89 1.13 1.34 1.68 1.89 2.11 2.08 1.85 1.69 1.63 1.61
2.19 1.81 1.52 1.46 1.44 1.57 1.53 1.46 1.41 1.41 1.49 1.51 1.53 1.51 1.67 1.75 1.58 1.38 1.56 1.47 1.46 1.31 1.27 1.35 1.19 0.98 0.96 1.03 1.06 0.97 0.84 0.90 1.10 1.22 1.45 1.80 2.01 2.18 2.23 2.01 1.79 1.73 1.77
2.10 1.92 1.78 1.76 1.69 1.77 2.03 2.02 1.92 1.93 1.87 1.77 1.78 1.72 1.96 2.09 1.96 1.93 1.97 1.88 1.99 2.06 2.03 1.78 1.58 1.33 1.21 1.14 1.10 1.11 1.15 1.17 1.29 1.45 1.72 1.82 1.88 1.98 2.11 2.11 2.04 1.96 1.90
2.32 2.12 2.02 2.06 2.04 2.03 2.37 2.57 2.38 2.34 2.18 2.03 1.98 1.98 2.05 2.11 2.14 2.29 2.31 2.43 2.32 2.20 2.11 2.01 1.72 1.66 1.50 1.33 1.25 1.20 1.33 1.46 1.53 1.72 1.80 1.86 1.80 1.81 2.02 2.22 2.29 2.30 2.19
2.66 2.39 2.18 2.19 2.10 2.09 2.25 2.48 2.57 2.48 2.49 2.42 2.28 2.19 2.20 2.31 2.47 2.52 2.59 2.55 2.36 2.15 2.14 2.15 2.00 1.96 1.84 1.69 1.50 1.48 1.50 1.52 1.63 1.72 1.83 1.99 1.72 1.62 1.86 2.16 2.37 2.45 2.51
2.95 2.90 2.66 2.54 2.47 2.42 2.36 2.36 2.42 2.51 2.69 2.63 2.62 2.63 2.46 2.39 2.50 2.58 2.72 2.68 2.54 2.43 2.35 2.23 2.22 2.19 2.07 1.95 1.85 1.79 1.76 1.69 1.63 1.69 1.89 2.06 1.98 1.89 1.94 2.03 2.18 2.34 2.51
3.51 3.39 2.91 2.57 2.72 2.77 2.80 2.78 2.85 2.85 2.95 2.87 2.69 2.79 2.71 2.70 2.64 2.65 2.62 2.51 2.48 2.42 2.54 2.58 2.53 2.48 2.34 2.26 2.20 1.99 1.94 1.91 1.77 1.77 1.86 1.95 2.20 2.26 2.21 2.03 1.99 2.11 2.31
4.13 3.86 3.16 2.85 2.96 3.08 3.06 3.20 3.39 3.49 3.44 3.29 3.13 3.11 2.96 3.01 2.94 2.89 2.95 2.88 2.75 2.77 2.76 2.59 2.65 2.72 2.73 2.61 2.28 2.11 1.96 1.97 1.92 1.81 1.85 1.84 2.04 2.27 2.27 2.13 2.05 2.04 2.17
4.24 4.11 3.62 3.34 3.50 3.45 3.36 3.49 3.62 3.68 3.67 3.73 3.73 3.68 3.46 3.35 3.39 3.48 3.52 3.44 3.20 3.15 3.16 3.21 3.15 2.89 2.70 2.61 2.31 2.24 2.09 1.91 1.88 1.83 1.76 1.76 1.81 1.79 1.91 1.93 2.02 1.99 2.01
3.48 3.53 3.70 3.69 3.73 3.76 3.68 3.69 3.87 4.00 4.03 4.00 4.12 4.17 3.99 3.89 3.93 4.08 4.09 4.02 3.76 3.55 3.43 3.38 3.29 3.05 2.76 2.56 2.52 2.38 2.11 1.87 1.85 1.79 1.74 1.73 1.60 1.55 1.69 1.87 1.84 1.77 1.80
3.25 3.40 3.55 3.55 3.77 4.03 4.37 4.80 5.05 5.16 5.08 4.92 4.85 4.76 4.62 4.50 4.44 4.40 4.41 4.20 3.92 3.76 3.54 3.30 3.20 3.03 2.79 2.67 2.60 2.63 2.31 2.09 1.81 1.60 1.64 1.61 1.55 1.53 1.50 1.52 1.63 1.65 1.62
2.86 3.12 3.28 3.54 4.01 4.53 5.15 5.90 6.25 6.01 5.61 5.41 5.10 5.03 4.83 4.59 4.50 4.50 4.27 4.05 3.82 3.61 3.44 3.23 3.14 3.06 2.80 2.68 2.65 2.76 2.52 2.25 2.01 1.81 1.63 1.52 1.52 1.54 1.51 1.49 1.50 1.59 1.58
2.55 2.97 3.34 3.75 4.32 4.99 5.54 6.03 6.30 6.20 5.91 5.64 5.20 4.81 4.45 4.12 3.93 3.83 3.72 3.49 3.34 3.20 3.03 2.85 2.85 2.83 2.71 2.53 2.46 2.31 2.20 2.10 2.06 1.90 1.71 1.53 1.50 1.53 1.49 1.43 1.46 1.54 1.58
2.40 2.86 3.32 3.74 4.35 4.91 5.42 5.80 6.03 6.06 5.93 5.56 4.89 4.29 3.90 3.57 3.33 3.05 2.82 2.71 2.70 2.63 2.44 2.25 2.21 2.21 2.19 2.14 2.12 2.01 1.94 1.88 1.85 1.79 1.72 1.63 1.56 1.46 1.38 1.35 1.34 1.38 1.45
2.27 2.71 3.08 3.40 4.10 4.81 5.34 5.71 5.94 5.94 5.67 5.06 4.40 3.86 3.53 3.25 2.98 2.71 2.53 2.36 2.26 2.15 2.01 1.84 1.73 1.73 1.76 1.79 1.83 1.81 1.70 1.64 1.63 1.66 1.59 1.52 1.49 1.42 1.34 1.29 1.25 1.26 1.31

GEFSSE_prec_meanprecacc_234.txt.gz
Total_Precipitation_Accumulation
0.44 0.30 0.33 0.31 0.24 0.21 0.21 0.30 0.38 0.32 0.28 0.28 0.32 0.33 0.29 0.25 0.23 0.22 0.23 0.25 0.27 0.33 0.39 0.45 0.48 0.53 0.59 0.58 0.44 0.31 0.25 0.23 0.21 0.22 0.27 0.34 0.40 0.42 0.49 0.45 0.51 0.53 0.61
0.35 0.30 0.34 0.30 0.27 0.26 0.27 0.33 0.31 0.25 0.25 0.25 0.26 0.32 0.30 0.25 0.23 0.25 0.26 0.30 0.34 0.38 0.38 0.39 0.43 0.52 0.50 0.43 0.34 0.27 0.22 0.19 0.21 0.28 0.34 0.43 0.58 0.62 0.70 0.64 0.66 0.76 0.63
0.28 0.32 0.35 0.35 0.31 0.30 0.27 0.29 0.24 0.23 0.26 0.29 0.29 0.34 0.37 0.27 0.24 0.24 0.26 0.34 0.44 0.45 0.42 0.38 0.37 0.44 0.45 0.35 0.27 0.25 0.26 0.29 0.35 0.45 0.68 0.77 0.79 0.86 0.92 0.83 0.77 0.65 0.53
0.26 0.33 0.33 0.34 0.35 0.33 0.29 0.29 0.27 0.27 0.28 0.34 0.38 0.41 0.44 0.35 0.29 0.30 0.31 0.35 0.45 0.47 0.42 0.38 0.35 0.38 0.39 0.32 0.27 0.27 0.32 0.41 0.50 0.67 1.04 1.00 0.88 1.02 0.98 0.89 0.83 0.74 0.65
0.30 0.32 0.32 0.30 0.35 0.41 0.40 0.39 0.37 0.35 0.38 0.41 0.47 0.52 0.57 0.48 0.38 0.37 0.37 0.37 0.45 0.48 0.48 0.42 0.36 0.35 0.36 0.34 0.30 0.31 0.33 0.43 0.64 0.93 1.32 1.49 1.46 1.38 1.08 0.92 0.88 0.84 0.84
0.37 0.41 0.35 0.35 0.39 0.53 0.54 0.50 0.47 0.46 0.47 0.53 0.55 0.56 0.60 0.54 0.49 0.51 0.49 0.47 0.52 0.55 0.56 0.53 0.49 0.41 0.38 0.46 0.36 0.36 0.40 0.57 0.68 1.00 1.38 1.73 1.72 1.63 1.28 1.06 0.94 0.98 0.98
0.54 0.53 0.47 0.45 0.46 0.58 0.57 0.55 0.52 0.51 0.52 0.60 0.63 0.59 0.60 0.55 0.49 0.56 0.66 0.62 0.66 0.69 0.60 0.55 0.54 0.47 0.44 0.52 0.52 0.46 0.55 0.74 0.80 1.08 1.41 1.55 1.70 1.66 1.47 1.33 1.12 0.97 0.95
0.57 0.54 0.48 0.47 0.48 0.61 0.66 0.61 0.57 0.53 0.58 0.70 0.73 0.68 0.61 0.59 0.58 0.63 0.72 0.78 0.81 0.78 0.62 0.57 0.56 0.53 0.56 0.57 0.56 0.57 0.63 0.72 0.67 0.92 1.26 1.45 1.40 1.45 1.61 1.55 1.30 1.09 0.98
0.61 0.61 0.60 0.64 0.63 0.64 0.65 0.69 0.73 0.64 0.69 0.80 0.79 0.81 0.72 0.68 0.78 0.84 0.83 0.84 0.86 0.80 0.67 0.61 0.63 0.57 0.59 0.63 0.59 0.61 0.65 0.69 0.63 0.87 1.15 1.59 1.36 1.49 1.73 1.57 1.36 1.23 1.10
1.13 1.19 1.03 0.99 0.90 0.74 0.65 0.66 0.69 0.70 0.83 0.95 0.87 0.82 0.81 0.81 0.88 0.98 0.93 0.87 0.79 0.70 0.66 0.66 0.70 0.64 0.58 0.56 0.54 0.57 0.62 0.55 0.51 0.73 1.27 1.49 1.47 1.74 1.90 1.71 1.50 1.38 1.28
1.71 1.81 1.51 1.12 0.94 0.96 0.84 0.73 0.79 0.77 0.81 0.89 0.88 0.86 0.92 1.14 1.28 1.31 1.10 1.08 0.94 0.80 0.77 0.77 0.72 0.66 0.58 0.54 0.62 0.71 0.66 0.50 0.67 0.93 1.23 1.49 1.66 1.97 2.11 1.89 1.67 1.55 1.44
2.08 2.02 1.84 1.41 1.40 1.53 1.23 1.11 1.07 0.99 0.98 0.97 1.09 1.09 1.18 1.59 1.68 1.42 1.42 1.28 1.21 1.06 0.98 0.96 0.92 0.80 0.68 0.65 0.82 0.85 0.64 0.62 0.90 1.15 1.36 1.72 1.98 2.19 2.15 1.92 1.74 1.67 1.64
2.31 1.92 1.61 1.52 1.50 1.63 1.58 1.51 1.46 1.46 1.54 1.55 1.58 1.55 1.72 1.81 1.64 1.45 1.65 1.56 1.54 1.39 1.34 1.41 1.23 1.01 0.98 1.05 1.08 0.99 0.87 0.92 1.12 1.24 1.47 1.83 2.06 2.24 2.29 2.07 1.85 1.78 1.81
2.23 2.01 1.89 1.85 1.78 1.86 2.11 2.08 1.97 1.98 1.94 1.83 1.83 1.78 2.04 2.20 2.07 2.04 2.07 1.96 2.08 2.12 2.09 1.84 1.62 1.36 1.23 1.16 1.11 1.12 1.17 1.19 1.32 1.47 1.74 1.85 1.91 2.02 2.15 2.16 2.09 2.01 1.96
2.44 2.22 2.12 2.20 2.18 2.16 2.48 2.65 2.45 2.40 2.23 2.08 2.03 2.03 2.14 2.25 2.30 2.44 2.43 2.54 2.44 2.31 2.19 2.08 1.77 1.69 1.53 1.35 1.27 1.22 1.34 1.48 1.55 1.74 1.82 1.89 1.83 1.84 2.06 2.26 2.34 2.36 2.23
2.74 2.49 2.32 2.38 2.29 2.25 2.40 2.61 2.66 2.58 2.58 2.49 2.33 2.25 2.27 2.39 2.56 2.60 2.67 2.65 2.48 2.28 2.27 2.25 2.07 2.01 1.88 1.73 1.53 1.52 1.53 1.55 1.66 1.75 1.85 2.02 1.76 1.65 1.89 2.20 2.43 2.51 2.58
3.03 3.00 2.84 2.76 2.81 2.65 2.55 2.62 2.58 2.60 2.79 2.73 2.70 2.69 2.53 2.44 2.55 2.63 2.77 2.75 2.63 2.54 2.49 2.37 2.34 2.28 2.13 2.01 1.90 1.85 1.80 1.72 1.66 1.72 1.92 2.09 2.01 1.92 1.99 2.09 2.24 2.40 2.57
3.59 3.50 3.06 2.74 2.94 2.93 2.90 2.93 3.00 2.94 3.04 2.98 2.78 2.86 2.77 2.76 2.68 2.68 2.65 2.55 2.52 2.50 2.67 2.74 2.64 2.59 2.46 2.35 2.28 2.06 1.99 1.96 1.81 1.80 1.89 1.98 2.23 2.28 2.25 2.08 2.04 2.16 2.35
4.21 3.96 3.32 2.99 3.04 3.12 3.10 3.27 3.49 3.58 3.53 3.37 3.21 3.20 3.05 3.07 2.98 2.93 2.99 2.91 2.78 2.83 2.86 2.71 2.76 2.82 2.85 2.75 2.40 2.21 2.03 2.02 1.97 1.85 1.89 1.88 2.07 2.30 2.30 2.17 2.10 2.09 2.21
4.35 4.22 3.74 3.43 3.54 3.48 3.39 3.55 3.71 3.76 3.75 3.81 3.83 3.77 3.54 3.41 3.44 3.54 3.58 3.51 3.26 3.19 3.20 3.27 3.25 2.97 2.78 2.70 2.40 2.32 2.16 1.98 1.94 1.87 1.80 1.81 1.86 1.83 1.95 1.97 2.05 2.02 2.05
3.57 3.65 3.79 3.75 3.77 3.78 3.70 3.72 3.93 4.08 4.09 4.06 4.20 4.25 4.06 3.95 4.02 4.22 4.23 4.14 3.83 3.59 3.46 3.42 3.35 3.12 2.84 2.64 2.60 2.46 2.18 1.94 1.91 1.84 1.78 1.77 1.64 1.59 1.73 1.92 1.88 1.81 1.82
3.33 3.49 3.63 3.60 3.81 4.06 4.40 4.84 5.10 5.22 5.15 4.99 4.91 4.82 4.67 4.56 4.58 4.62 4.61 4.30 3.97 3.80 3.58 3.34 3.24 3.08 2.84 2.73 2.66 2.68 2.35 2.13 1.84 1.63 1.68 1.65 1.58 1.56 1.54 1.56 1.68 1.68 1.64
2.93 3.19 3.35 3.59 4.06 4.58 5.21 5.98 6.32 6.07 5.69 5.47 5.15 5.08 4.89 4.67 4.62 4.63 4.36 4.09 3.85 3.65 3.49 3.28 3.18 3.10 2.85 2.74 2.72 2.82 2.55 2.28 2.03 1.84 1.66 1.56 1.56 1.58 1.54 1.52 1.54 1.63 1.62
2.61 3.04 3.41 3.82 4.41 5.07 5.62 6.12 6.36 6.25 5.98 5.70 5.25 4.87 4.51 4.20 4.01 3.89 3.77 3.52 3.38 3.25 3.09 2.92 2.92 2.89 2.77 2.58 2.52 2.36 2.24 2.13 2.08 1.92 1.74 1.57 1.54 1.57 1.52 1.46 1.49 1.57 1.61
2.51 2.94 3.40 3.85 4.46 5.00 5.52 5.89 6.11 6.13 5.99 5.61 4.94 4.33 3.96 3.63 3.39 3.12 2.89 2.78 2.77 2.70 2.50 2.31 2.28 2.28 2.25 2.20 2.17 2.05 1.97 1.91 1.87 1.81 1.75 1.67 1.60 1.50 1.42 1.40 1.39 1.42 1.49
2.44 2.86 3.19 3.55 4.22 4.92 5.44 5.78 6.02 6.00 5.72 5.10 4.43 3.89 3.56 3.29 3.03 2.76 2.59 2.42 2.34 2.23 2.06 1.89 1.79 1.77 1.81 1.84 1.88 1.87 1.75 1.69 1.67 1.70 1.62 1.54 1.52 1.45 1.37 1.32 1.28 1.29 1.36

GEFSSE_prec_meanprecacc_240.txt.gz
Total_Precipitation_Accumulation
0.47 0.34 0.35 0.33 0.25 0.22 0.22 0.30 0.38 0.32 0.28 0.28 0.32 0.34 0.30 0.27 0.24 0.24 0.26 0.27 0.29 0.35 0.42 0.49 0.51 0.56 0.60 0.59 0.47 0.33 0.28 0.26 0.25 0.25 0.30 0.37 0.43 0.45 0.52 0.49 0.56 0.56 0.65
0.38 0.33 0.35 0.31 0.29 0.28 0.29 0.34 0.31 0.25 0.25 0.26 0.27 0.34 0.32 0.27 0.25 0.27 0.28 0.33 0.36 0.40 0.41 0.43 0.47 0.54 0.51 0.44 0.37 0.30 0.25 0.23 0.26 0.33 0.38 0.46 0.62 0.66 0.73 0.67 0.71 0.79 0.67
0.29 0.33 0.36 0.35 0.33 0.31 0.28 0.30 0.25 0.23 0.26 0.29 0.30 0.35 0.38 0.29 0.26 0.26 0.29 0.37 0.47 0.48 0.45 0.42 0.42 0.46 0.47 0.36 0.29 0.28 0.30 0.32 0.38 0.48 0.72 0.79 0.81 0.90 0.96 0.87 0.81 0.70 0.58
0.26 0.33 0.33 0.34 0.36 0.34 0.30 0.30 0.27 0.28 0.29 0.34 0.38 0.42 0.45 0.37 0.32 0.33 0.34 0.38 0.48 0.49 0.45 0.41 0.39 0.42 0.42 0.34 0.29 0.29 0.35 0.46 0.54 0.69 1.05 1.01 0.89 1.06 1.03 0.93 0.88 0.79 0.71
0.31 0.33 0.32 0.30 0.36 0.41 0.41 0.39 0.38 0.35 0.38 0.42 0.48 0.53 0.58 0.49 0.42 0.42 0.42 0.42 0.50 0.51 0.50 0.46 0.41 0.40 0.40 0.37 0.34 0.35 0.37 0.49 0.70 0.96 1.33 1.50 1.47 1.41 1.13 0.97 0.92 0.89 0.90
0.38 0.41 0.35 0.36 0.40 0.54 0.54 0.50 0.48 0.46 0.47 0.54 0.57 0.57 0.61 0.55 0.51 0.55 0.58 0.57 0.60 0.60 0.59 0.56 0.54 0.46 0.42 0.49 0.40 0.42 0.46 0.62 0.75 1.03 1.40 1.74 1.74 1.66 1.33 1.12 0.99 1.03 1.03
0.56 0.54 0.47 0.45 0.46 0.58 0.57 0.55 0.52 0.52 0.53 0.62 0.65 0.61 0.63 0.58 0.53 0.60 0.72 0.73 0.78 0.80 0.67 0.59 0.58 0.52 0.50 0.58 0.56 0.51 0.60 0.80 0.85 1.11 1.43 1.57 1.72 1.70 1.54 1.39 1.17 1.03 1.01
0.64 0.57 0.49 0.48 0.49 0.62 0.67 0.61 0.57 0.54 0.58 0.71 0.75 0.70 0.64 0.62 0.62 0.68 0.77 0.85 0.92 0.90 0.72 0.66 0.62 0.58 0.61 0.61 0.59 0.60 0.67 0.77 0.70 0.94 1.29 1.47 1.42 1.48 1.67 1.61 1.35 1.14 1.03
0.70 0.67 0.63 0.66 0.65 0.66 0.67 0.70 0.75 0.65 0.70 0.81 0.80 0.82 0.74 0.71 0.82 0.89 0.88 0.91 0.94 0.93 0.79 0.70 0.70 0.63 0.65 0.67 0.62 0.64 0.68 0.72 0.65 0.89 1.16 1.61 1.37 1.52 1.77 1.62 1.41 1.28 1.15
1.23 1.28 1.12 1.04 0.93 0.77 0.68 0.68 0.71 0.72 0.85 0.96 0.88 0.83 0.82 0.83 0.91 1.02 0.98 0.95 0.88 0.81 0.79 0.76 0.77 0.72 0.65 0.61 0.57 0.61 0.66 0.59 0.52 0.74 1.28 1.51 1.49 1.78 1.96 1.77 1.55 1.43 1.33
1.79 1.92 1.62 1.21 1.00 1.01 0.89 0.76 0.81 0.79 0.83 0.91 0.90 0.87 0.93 1.15 1.29 1.33 1.16 1.18 1.07 0.94 0.90 0.90 0.81 0.74 0.66 0.59 0.66 0.75 0.70 0.52 0.68 0.94 1.23 1.51 1.69 2.01 2.17 1.95 1.72 1.60 1.48
2.14 2.11 1.91 1.45 1.46 1.59 1.27 1.15 1.10 1.02 0.99 0.98 1.11 1.11 1.20 1.61 1.70 1.44 1.46 1.39 1.37 1.23 1.13 1.12 1.07 0.92 0.78 0.72 0.87 0.91 0.67 0.63 0.91 1.15 1.36 1.74 2.01 2.22 2.20 1.97 1.79 1.71 1.69
2.38 1.97 1.65 1.55 1.53 1.66 1.62 1.55 1.50 1.49 1.56 1.58 1.62 1.63 1.79 1.86 1.69 1.50 1.69 1.62 1.63 1.53 1.48 1.55 1.39 1.16 1.08 1.10 1.13 1.03 0.90 0.94 1.13 1.25 1.49 1.85 2.08 2.27 2.33 2.12 1.89 1.83 1.87
2.29 2.06 1.93 1.88 1.80 1.88 2.15 2.12 2.01 2.02 1.97 1.88 1.90 1.85 2.12 2.27 2.14 2.11 2.13 2.03 2.13 2.17 2.16 1.92 1.72 1.49 1.35 1.22 1.15 1.15 1.19 1.21 1.33 1.48 1.76 1.88 1.94 2.05 2.19 2.21 2.14 2.06 2.01
2.50 2.27 2.17 2.23 2.20 2.18 2.50 2.69 2.48 2.44 2.28 2.14 2.09 2.11 2.22 2.32 2.37 2.51 2.48 2.60 2.49 2.36 2.26 2.14 1.83 1.77 1.62 1.42 1.31 1.25 1.37 1.50 1.57 1.76 1.84 1.92 1.87 1.88 2.09 2.30 2.39 2.40 2.28
2.81 2.55 2.38 2.43 2.32 2.29 2.45 2.66 2.71 2.63 2.63 2.54 2.38 2.31 2.33 2.45 2.62 2.66 2.73 2.71 2.54 2.34 2.35 2.34 2.16 2.10 1.97 1.80 1.59 1.56 1.58 1.59 1.70 1.78 1.88 2.05 1.79 1.69 1.93 2.24 2.47 2.55 2.63
3.08 3.07 2.91 2.82 2.88 2.73 2.66 2.72 2.67 2.68 2.86 2.80 2.77 2.75 2.59 2.51 2.61 2.71 2.86 2.82 2.70 2.60 2.55 2.46 2.42 2.36 2.21 2.07 1.95 1.90 1.86 1.76 1.69 1.75 1.94 2.11 2.04 1.95 2.02 2.12 2.27 2.44 2.62
3.67 3.59 3.15 2.82 3.05 3.06 3.03 3.07 3.13 3.06 3.15 3.07 2.85 2.92 2.83 2.83 2.75 2.76 2.75 2.66 2.62 2.59 2.75 2.80 2.68 2.64 2.51 2.41 2.34 2.11 2.03 2.00 1.84 1.82 1.90 2.00 2.25 2.31 2.27 2.11 2.07 2.19 2.38
4.28 4.03 3.40 3.06 3.14 3.25 3.20 3.37 3.60 3.70 3.64 3.46 3.28 3.26 3.10 3.13 3.05 3.02 3.11 3.06 2.93 2.98 2.98 2.77 2.82 2.87 2.89 2.81 2.47 2.29 2.12 2.10 2.03 1.90 1.92 1.89 2.09 2.32 2.31 2.19 2.12 2.11 2.23
4.41 4.27 3.79 3.49 3.63 3.58 3.45 3.61 3.78 3.84 3.83 3.89 3.91 3.84 3.62 3.50 3.53 3.67 3.72 3.65 3.42 3.32 3.28 3.32 3.28 3.00 2.82 2.76 2.46 2.38 2.23 2.04 2.00 1.92 1.84 1.84 1.88 1.84 1.96 1.99 2.07 2.04 2.06
3.63 3.71 3.85 3.81 3.86 3.86 3.78 3.80 4.01 4.15 4.16 4.13 4.27 4.33 4.15 4.04 4.11 4.35 4.36 4.26 3.96 3.68 3.51 3.45 3.38 3.15 2.87 2.68 2.66 2.51 2.23 2.00 1.96 1.89 1.84 1.82 1.67 1.61 1.75 1.93 1.90 1.82 1.83
3.39 3.55 3.69 3.68 3.90 4.15 4.51 4.98 5.24 5.35 5.24 5.06 4.98 4.90 4.76 4.65 4.66 4.72 4.70 4.38 4.04 3.86 3.61 3.36 3.26 3.12 2.88 2.77 2.71 2.74 2.41 2.19 1.89 1.67 1.72 1.71 1.63 1.60 1.57 1.59 1.70 1.70 1.66
3.00 3.26 3.44 3.71 4.18 4.71 5.36 6.13 6.43 6.17 5.76 5.55 5.23 5.16 4.97 4.74 4.69 4.72 4.43 4.14 3.91 3.71 3.53 3.32 3.23 3.15 2.89 2.78 2.78 2.89 2.62 2.33 2.07 1.88 1.70 1.61 1.60 1.61 1.57 1.54 1.57 1.66 1.64
2.71 3.14 3.54 3.97 4.58 5.24 5.79 6.25 6.46 6.32 6.05 5.78 5.33 4.96 4.59 4.27 4.07 3.95 3.83 3.58 3.44 3.32 3.16 2.99 2.99 2.94 2.82 2.62 2.55 2.40 2.29 2.18 2.14 1.98 1.78 1.61 1.57 1.60 1.55 1.49 1.52 1.59 1.64
2.65 3.12 3.59 4.04 4.70 5.20 5.67 6.00 6.21 6.22 6.11 5.73 5.04 4.43 4.03 3.69 3.44 3.17 2.93 2.81 2.81 2.76 2.56 2.37 2.35 2.34 2.31 2.24 2.21 2.09 2.02 1.96 1.91 1.85 1.79 1.71 1.64 1.53 1.45 1.43 1.42 1.45 1.51
2.57 3.06 3.40 3.73 4.41 5.08 5.56 5.88 6.12 6.09 5.84 5.21 4.52 3.98 3.64 3.34 3.07 2.79 2.62 2.45 2.37 2.27 2.12 1.95 1.86 1.84 1.86 1.89 1.93 1.93 1.81 1.74 1.71 1.74 1.65 1.57 1.56 1.50 1.42 1.35 1.31 1.32 1.39

GEFSSE_prec_meanprecacc_246.txt.gz
Total_Precipitation_Accumulation
0.53 0.36 0.36 0.34 0.28 0.24 0.24 0.31 0.39 0.33 0.29 0.29 0.33 0.35 0.31 0.27 0.26 0.25 0.28 0.27 0.29 0.35 0.43 0.51 0.53 0.57 0.62 0.61 0.49 0.36 0.30 0.28 0.26 0.26 0.32 0.39 0.47 0.51 0.57 0.54 0.60 0.58 0.70
0.39 0.34 0.35 0.32 0.30 0.30 0.30 0.36 0.32 0.27 0.26 0.26 0.28 0.34 0.32 0.28 0.26 0.28 0.31 0.36 0.38 0.42 0.42 0.45 0.49 0.56 0.53 0.46 0.39 0.32 0.26 0.24 0.27 0.35 0.41 0.49 0.67 0.73 0.77 0.70 0.74 0.83 0.72
0.29 0.33 0.36 0.36 0.34 0.33 0.30 0.31 0.26 0.25 0.27 0.30 0.30 0.35 0.39 0.31 0.28 0.28 0.31 0.41 0.51 0.52 0.47 0.44 0.45 0.48 0.49 0.38 0.31 0.30 0.31 0.33 0.39 0.49 0.74 0.82 0.86 0.95 0.99 0.90 0.84 0.73 0.61
0.27 0.33 0.33 0.35 0.37 0.35 0.31 0.31 0.28 0.29 0.31 0.36 0.39 0.42 0.47 0.38 0.33 0.35 0.38 0.43 0.54 0.56 0.50 0.45 0.43 0.45 0.45 0.37 0.32 0.32 0.38 0.48 0.56 0.71 1.07 1.04 0.92 1.09 1.06 0.97 0.91 0.83 0.75
0.31 0.33 0.32 0.31 0.37 0.42 0.42 0.41 0.39 0.37 0.40 0.44 0.49 0.55 0.59 0.52 0.44 0.45 0.45 0.46 0.55 0.58 0.58 0.53 0.47 0.46 0.45 0.41 0.38 0.39 0.42 0.54 0.75 0.98 1.34 1.52 1.50 1.44 1.16 1.00 0.95 0.93 0.94
0.39 0.42 0.35 0.36 0.40 0.54 0.55 0.51 0.49 0.47 0.49 0.55 0.59 0.60 0.65 0.59 0.55 0.59 0.62 0.61 0.65 0.66 0.66 0.65 0.65 0.58 0.49 0.54 0.46 0.47 0.52 0.68 0.80 1.07 1.43 1.77 1.77 1.70 1.37 1.14 1.02 1.07 1.07
0.58 0.55 0.48 0.46 0.47 0.59 0.58 0.56 0.53 0.53 0.54 0.63 0.66 0.64 0.66 0.62 0.57 0.65 0.78 0.79 0.84 0.87 0.75 0.68 0.70 0.68 0.59 0.65 0.62 0.55 0.65 0.86 0.90 1.14 1.45 1.59 1.75 1.72 1.57 1.42 1.20 1.06 1.04
0.66 0.60 0.51 0.49 0.51 0.63 0.68 0.63 0.59 0.56 0.60 0.73 0.76 0.71 0.66 0.65 0.66 0.73 0.83 0.91 0.99 0.97 0.81 0.76 0.73 0.69 0.73 0.70 0.65 0.64 0.72 0.84 0.75 0.97 1.32 1.50 1.44 1.50 1.70 1.64 1.39 1.18 1.07
0.72 0.72 0.68 0.69 0.68 0.68 0.69 0.73 0.77 0.68 0.73 0.82 0.82 0.84 0.75 0.73 0.85 0.93 0.92 0.96 1.01 1.00 0.88 0.82 0.82 0.72 0.75 0.75 0.67 0.68 0.73 0.79 0.71 0.93 1.18 1.63 1.39 1.53 1.80 1.66 1.44 1.31 1.17
1.30 1.36 1.19 1.11 0.99 0.82 0.73 0.72 0.74 0.76 0.88 0.99 0.91 0.86 0.85 0.85 0.93 1.04 1.01 1.00 0.95 0.88 0.87 0.85 0.88 0.84 0.77 0.70 0.64 0.66 0.71 0.64 0.57 0.77 1.30 1.52 1.50 1.80 1.98 1.81 1.58 1.45 1.35
1.92 2.06 1.76 1.35 1.13 1.10 0.96 0.81 0.87 0.85 0.88 0.95 0.95 0.92 0.98 1.20 1.33 1.36 1.20 1.25 1.13 1.00 0.98 0.99 0.92 0.86 0.78 0.70 0.75 0.81 0.76 0.57 0.72 0.97 1.26 1.52 1.71 2.03 2.19 1.98 1.75 1.62 1.51
2.27 2.29 2.03 1.55 1.62 1.73 1.35 1.22 1.17 1.07 1.04 1.03 1.16 1.16 1.25 1.66 1.75 1.49 1.52 1.45 1.44 1.32 1.24 1.23 1.18 1.04 0.89 0.82 0.97 0.99 0.73 0.70 0.98 1.19 1.39 1.76 2.03 2.24 2.22 1.99 1.82 1.74 1.72
2.47 2.08 1.73 1.65 1.66 1.79 1.72 1.62 1.57 1.55 1.60 1.61 1.66 1.67 1.83 1.90 1.74 1.56 1.75 1.68 1.71 1.65 1.62 1.69 1.52 1.30 1.21 1.20 1.21 1.10 0.96 1.00 1.17 1.28 1.51 1.88 2.11 2.30 2.36 2.14 1.92 1.86 1.90
2.38 2.14 2.03 2.02 1.92 1.96 2.25 2.21 2.09 2.08 2.02 1.92 1.94 1.89 2.16 2.30 2.18 2.15 2.17 2.08 2.20 2.25 2.28 2.07 1.86 1.63 1.51 1.36 1.25 1.21 1.24 1.25 1.36 1.51 1.79 1.91 1.98 2.09 2.23 2.25 2.17 2.10 2.05
2.58 2.36 2.27 2.34 2.28 2.26 2.61 2.80 2.57 2.50 2.33 2.19 2.15 2.18 2.29 2.37 2.41 2.54 2.52 2.64 2.54 2.42 2.33 2.21 1.91 1.87 1.74 1.57 1.44 1.32 1.42 1.54 1.60 1.79 1.88 1.96 1.90 1.92 2.14 2.35 2.43 2.44 2.31
2.88 2.62 2.45 2.48 2.38 2.37 2.54 2.75 2.80 2.70 2.70 2.59 2.46 2.40 2.41 2.51 2.67 2.71 2.77 2.75 2.58 2.38 2.40 2.40 2.23 2.18 2.05 1.89 1.68 1.64 1.64 1.64 1.74 1.81 1.92 2.09 1.82 1.72 1.97 2.29 2.52 2.60 2.68
3.13 3.11 2.95 2.87 2.93 2.80 2.74 2.78 2.73 2.74 2.92 2.86 2.84 2.86 2.69 2.60 2.69 2.77 2.90 2.86 2.74 2.64 2.59 2.52 2.49 2.43 2.27 2.13 2.02 1.97 1.92 1.82 1.74 1.79 1.99 2.15 2.07 1.98 2.05 2.16 2.32 2.48 2.66
3.70 3.62 3.19 2.86 3.09 3.10 3.11 3.14 3.17 3.10 3.20 3.14 2.93 3.00 2.91 2.91 2.85 2.85 2.82 2.71 2.66 2.62 2.78 2.84 2.74 2.71 2.57 2.46 2.39 2.16 2.08 2.06 1.89 1.86 1.93 2.02 2.28 2.33 2.30 2.15 2.12 2.24 2.42
4.32 4.07 3.44 3.09 3.16 3.29 3.25 3.42 3.64 3.74 3.70 3.52 3.34 3.32 3.16 3.20 3.14 3.10 3.20 3.14 3.00 3.03 3.02 2.81 2.86 2.93 2.96 2.86 2.52 2.34 2.16 2.14 2.06 1.92 1.94 1.91 2.11 2.34 2.34 2.23 2.17 2.15 2.27
4.45 4.31 3.83 3.51 3.66 3.61 3.50 3.64 3.81 3.88 3.88 3.94 3.96 3.90 3.69 3.57 3.62 3.74 3.81 3.74 3.51 3.40 3.34 3.37 3.33 3.05 2.89 2.83 2.53 2.44 2.27 2.08 2.03 1.95 1.86 1.86 1.89 1.86 1.99 2.02 2.11 2.07 2.09
3.67 3.74 3.88 3.84 3.88 3.90 3.82 3.84 4.04 4.20 4.22 4.20 4.33 4.38 4.21 4.10 4.17 4.41 4.44 4.35 4.07 3.78 3.58 3.50 3.43 3.21 2.93 2.75 2.74 2.58 2.29 2.04 2.00 1.92 1.87 1.85 1.70 1.63 1.77 1.96 1.93 1.85 1.85
3.43 3.59 3.72 3.71 3.93 4.18 4.53 5.00 5.27 5.39 5.31 5.13 5.04 4.95 4.82 4.71 4.73 4.79 4.78 4.47 4.16 3.98 3.71 3.45 3.34 3.19 2.95 2.84 2.79 2.83 2.50 2.27 1.95 1.70 1.75 1.74 1.67 1.65 1.60 1.61 1.72 1.73 1.68
3.04 3.31 3.50 3.76 4.22 4.74 5.39 6.16 6.46 6.21 5.82 5.61 5.29 5.22 5.02 4.79 4.74 4.76 4.48 4.21 3.99 3.82 3.64 3.42 3.33 3.24 2.97 2.85 2.87 3.02 2.75 2.43 2.15 1.93 1.73 1.64 1.65 1.68 1.62 1.58 1.60 1.68 1.67
2.74 3.18 3.59 4.03 4.62 5.27 5.82 6.28 6.50 6.37 6.11 5.83 5.39 5.02 4.64 4.31 4.12 4.00 3.88 3.63 3.49 3.38 3.23 3.06 3.05 3.02 2.91 2.70 2.63 2.49 2.41 2.27 2.22 2.05 1.83 1.66 1.63 1.66 1.62 1.55 1.56 1.63 1.68
2.68 3.14 3.63 4.09 4.75 5.24 5.70 6.04 6.24 6.26 6.14 5.77 5.10 4.48 4.08 3.75 3.49 3.22 2.99 2.87 2.86 2.80 2.61 2.42 2.40 2.39 2.38 2.31 2.27 2.15 2.08 2.02 1.98 1.92 1.86 1.78 1.71 1.59 1.51 1.49 1.48 1.50 1.56
2.59 3.08 3.42 3.76 4.45 5.12 5.59 5.92 6.16 6.12 5.88 5.25 4.56 4.03 3.69 3.40 3.12 2.86 2.70 2.51 2.41 2.30 2.15 1.98 1.91 1.90 1.93 1.94 1.98 1.98 1.86 1.80 1.77 1.81 1.73 1.66 1.63 1.56 1.48 1.42 1.38 1.38 1.44